DW8131 Varberg SE current weather conditions

sailwx.info

Wind from 212 at 11 knots

Air temperature 17.2° C
Dewpoint 12.8° C

Last reported at 2019-Aug-20 18:01 UTC.
Time now 2019-Aug-20 18:59 UTC

Location: N 57°14' E 012°07'.
View on Google Maps.

See reports from other nearby stations

  
Tides and Currents Weather Stations Pressure Air Temp Water Temp Dewpoint Dewpoint Depression Visibility Wind Speed Wind Dir Waves Ship Positions
date/time (UTC)wind fromknots sea level pressurealtimeterstation pressurevisibilityair tempwater tempwave heightnotes
2019-Aug-20 18:01 212 11 17.2
2019-Aug-20 17:46 214 9 17.8
2019-Aug-20 17:31 216 7 17.8
2019-Aug-20 17:16 234 7 17.8
2019-Aug-20 17:01 244 8 17.8
2019-Aug-20 16:46 213 10 18.3
2019-Aug-20 16:31 227 12 18.3
2019-Aug-20 16:16 245 11 18.3
2019-Aug-20 16:01 246 12 18.9
2019-Aug-20 15:46 215 13 18.9
2019-Aug-20 15:30 224 12 18.9
2019-Aug-20 15:15 219 13 18.9
2019-Aug-20 15:00 215 12 18.3
2019-Aug-20 14:46 223 13 18.9
2019-Aug-20 14:30 231 12 19.4
2019-Aug-20 14:16 226 12 20.0
2019-Aug-20 14:01 215 11 19.4
2019-Aug-20 13:45 218 12 20.0
2019-Aug-20 13:30 223 9 19.4
2019-Aug-20 13:15 203 9 18.9
2019-Aug-20 13:01 219 8 20.0
2019-Aug-20 12:45 223 10 20.0
2019-Aug-20 12:31 221 10 20.0
2019-Aug-20 12:15 207 10 20.6
2019-Aug-20 12:00 239 10 20.6
2019-Aug-20 11:45 218 10 20.6
2019-Aug-20 11:30 233 10 20.0
2019-Aug-20 11:15 222 10 20.0
2019-Aug-20 11:00 224 11 20.6
2019-Aug-20 10:45 225 11 19.4
2019-Aug-20 10:30 229 10 18.3
2019-Aug-20 10:15 227 10 18.3
2019-Aug-20 10:00 227 11 18.3
2019-Aug-20 09:45 236 10 18.3
2019-Aug-20 09:30 222 11 17.8
2019-Aug-20 09:15 234 11 17.8
2019-Aug-20 09:02 231 11 17.8
2019-Aug-20 08:47 229 10 17.8
2019-Aug-20 08:32 228 11 17.8
2019-Aug-20 08:17 219 11 18.3
2019-Aug-20 08:01 215 11 18.9
2019-Aug-20 07:46 229 11 18.9
2019-Aug-20 07:33 229 11 18.3
2019-Aug-20 07:16 247 10 17.8
2019-Aug-20 07:02 242 10 17.8
2019-Aug-20 06:46 236 11 17.2
2019-Aug-20 06:31 234 10 17.8
2019-Aug-20 06:16 229 10 16.7
2019-Aug-20 06:01 240 11 16.1
2019-Aug-20 05:46 229 11 16.1
2019-Aug-20 05:31 242 12 15.6
2019-Aug-20 05:15 236 11 16.1
2019-Aug-20 05:01 252 12 15.6
2019-Aug-20 04:45 247 13 15.6
2019-Aug-20 04:30 238 14 15.6
2019-Aug-20 04:16 244 14 15.6
2019-Aug-20 04:01 229 14 15.6
2019-Aug-20 03:45 232 15 15.6
2019-Aug-20 03:30 253 16 15.6
2019-Aug-20 03:15 232 14 15.6
2019-Aug-20 03:01 266 16 15.6
2019-Aug-20 02:45 231 16 15.6
2019-Aug-20 02:30 244 16 15.6
2019-Aug-20 02:15 239 14 16.1
2019-Aug-20 02:01 238 16 16.1
2019-Aug-20 01:46 226 16 16.1
2019-Aug-20 01:30 248 16 16.1
2019-Aug-20 01:16 242 16 16.1
2019-Aug-20 01:00 244 18 16.1
2019-Aug-20 00:45 232 16 16.1
2019-Aug-20 00:30 233 17 16.1
2019-Aug-20 00:15 249 17 16.1
2019-Aug-20 00:00 227 15 16.1
2019-Aug-19 23:45 231 17 16.1
2019-Aug-19 23:30 236 17 16.7
2019-Aug-19 23:15 230 16 16.7
2019-Aug-19 23:00 229 16 16.7
2019-Aug-19 22:45 222 16 16.7
2019-Aug-19 22:30 233 16 16.7
2019-Aug-19 22:15 224 17 16.7
2019-Aug-19 22:02 250 18 16.7
2019-Aug-19 21:48 240 18 16.7
2019-Aug-19 21:32 246 19 17.2
2019-Aug-19 21:16 239 15 17.2
2019-Aug-19 21:01 223 16 17.2
2019-Aug-19 20:46 232 17 17.2
2019-Aug-19 20:32 205 14 17.2
2019-Aug-19 20:17 219 15 17.2
2019-Aug-19 20:01 196 14 16.7
2019-Aug-19 19:46 231 14 16.7
2019-Aug-19 19:31 198 15 16.7
2019-Aug-19 19:16 212 17 16.7
2019-Aug-19 19:01 200 18 16.7
2019-Aug-19 18:46 215 18 17.2
2019-Aug-19 18:31 213 18 17.2
2019-Aug-19 18:16 223 17 17.2
2019-Aug-19 18:01 224 15 17.2
2019-Aug-19 17:46 218 16 16.7
2019-Aug-19 17:32 221 16 16.7
2019-Aug-19 17:15 218 18 16.7
2019-Aug-19 17:01 238 18 17.2
2019-Aug-19 16:46 212 17 17.2
2019-Aug-19 16:31 211 19 16.7
2019-Aug-19 16:15 221 17 17.2
2019-Aug-19 16:01 209 15 17.2
2019-Aug-19 15:46 224 15 17.2
2019-Aug-19 15:31 207 15 17.2
2019-Aug-19 15:15 231 13 17.2
2019-Aug-19 15:00 234 13 16.7
2019-Aug-19 14:45 240 12 16.1
2019-Aug-19 14:31 228 11 15.6
2019-Aug-19 14:15 260 13 16.1
2019-Aug-19 14:00 234 14 17.2
2019-Aug-19 13:46 271 15 17.2
2019-Aug-19 13:30 224 18 18.3
2019-Aug-19 13:15 228 19 18.9
2019-Aug-19 13:00 227 20 19.4
2019-Aug-19 11:46 219 19 19.4
2019-Aug-19 11:30 214 19 19.4
2019-Aug-19 11:15 225 19 19.4
2019-Aug-19 11:00 223 20 19.4
2019-Aug-19 10:46 196 19 18.9
2019-Aug-19 10:30 219 19 18.9
2019-Aug-19 10:15 208 19 18.3
2019-Aug-19 10:00 212 19 18.3
2019-Aug-19 09:46 205 19 18.3
2019-Aug-19 09:30 205 19 18.3
2019-Aug-19 09:15 218 19 18.3
2019-Aug-19 09:00 208 18 18.9
2019-Aug-19 08:45 216 19 18.9
2019-Aug-19 08:30 207 20 18.3
2019-Aug-19 08:15 212 19 18.3
2019-Aug-19 08:00 227 19 18.9
2019-Aug-19 07:45 220 19 18.3
2019-Aug-19 07:30 234 19 18.3
2019-Aug-19 07:15 232 19 18.3
2019-Aug-19 07:00 212 19 17.8
2019-Aug-19 06:45 208 19 17.8
2019-Aug-19 06:30 229 19 17.2
2019-Aug-19 06:16 221 17 17.2
2019-Aug-19 06:03 228 17 17.2
2019-Aug-19 05:47 212 16 17.2
2019-Aug-19 05:32 237 15 16.7
2019-Aug-19 05:17 232 15 16.7
2019-Aug-19 05:02 243 15 16.1
2019-Aug-19 04:47 240 16 16.1
2019-Aug-19 04:31 244 15 15.6
2019-Aug-19 04:16 243 13 15.6
2019-Aug-19 04:01 243 14 15.6
2019-Aug-19 03:46 239 15 15.6
2019-Aug-19 03:31 221 15 15.6
2019-Aug-19 03:15 236 14 15.6
2019-Aug-19 03:01 239 16 15.6
2019-Aug-19 02:46 236 15 15.0
2019-Aug-19 02:31 251 15 15.0
2019-Aug-19 02:16 229 14 15.0
2019-Aug-19 02:00 250 14 15.0
2019-Aug-19 01:46 258 15 15.0
2019-Aug-19 01:30 234 15 15.0
2019-Aug-19 01:16 240 15 15.0
2019-Aug-19 01:01 240 14 15.6
2019-Aug-19 00:46 252 15 15.0
2019-Aug-19 00:30 250 15 15.0
2019-Aug-19 00:15 266 16 15.0
2019-Aug-19 00:00 255 16 15.0
2019-Aug-18 23:45 244 15 15.0
2019-Aug-18 23:31 258 16 15.6
2019-Aug-18 23:15 244 16 15.6